Du Bois, PA

9:56 PM EST on December 15, 2019 (GMT -0500)
Du Bois-Jefferson County

Weather History for KDUJ - October, 2019

Change the Weather History Date:

Saturday, October 12, 2019

  Actual Average Record
Temperature  
Mean Temperature 46 °F 50 °F  
Max Temperature 55 °F 60 °F 74 °F (1995)
Min Temperature 35 °F 40 °F 28 °F (1964)
Degree Days  
Heating Degree Days 20 15  
Month to date heating degree days 115 158  
Since 1 July heating degree days 218 404  
Cooling Degree Days 0 0  
Month to date cooling degree days 23 0  
Year to date cooling degree days 430 360  
Moisture  
Dew Point 43 °F    
Average Humidity 76    
Maximum Humidity 93    
Minimum Humidity 54    
Precipitation  
Precipitation 0.02 in 0.10 in 0.86 in (1970)
Month to date precipitation 1.86 1.25  
Year to date precipitation 38.26 34.49  
Sea Level Pressure  
Sea Level Pressure 29.99 in    
Wind  
Wind Speed 6 mph ()    
Max Wind Speed 17 mph    
Max Gust Speed 22 mph    
Visibility 9.5 miles    
Events Rain    
T = Trace of Precipitation, MM = Missing Value Source: Averaged Metar Reports

Daily Weather History Graph

Daily Weather History Graph

Search for Another Location

Airport or City:

Astronomy

Oct. 12, 2019 Rise Set
Actual Time 7:23 AM EDT 6:39 PM EDT
Civil Twilight 6:56 AM EDT 7:07 PM EDT
Nautical Twilight 6:24 AM EDT 7:39 PM EDT
Astronomical Twilight 5:52 AM EDT 8:11 PM EDT
Moon 6:36 PM EDT (10/12) 5:57 AM EDT (10/12)
Length of Visible Light 12h 11m
Length of Day
11h 16m
Waxing Gibbous, 99% of the Moon is Illuminated
Oct 12
Waxing Gibbous
Oct 13
Full
Oct 21
Last Quarter
Oct 27
New
Nov 4
First Quarter

Hourly Weather History & Observations

Time (EDT) Temp. Windchill Dew Point Humidity Pressure Visibility Wind Dir Wind Speed Gust Speed Precip Events Conditions
12:53 AM 52.0 °F - 41.0 °F 66% 29.99 in 10.0 mi ESE 5.8 mph - N/A   Scattered Clouds
1:53 AM 51.1 °F - 42.1 °F 71% 29.97 in 10.0 mi ESE 6.9 mph - N/A   Partly Cloudy
2:53 AM 54.0 °F - 42.1 °F 64% 29.94 in 10.0 mi SE 9.2 mph - N/A   Overcast
3:53 AM 54.0 °F - 42.1 °F 64% 29.93 in 10.0 mi SE 8.1 mph - N/A   Overcast
4:53 AM 53.1 °F - 42.1 °F 66% 29.92 in 10.0 mi SE 9.2 mph - N/A   Overcast
5:53 AM 53.1 °F - 43.0 °F 69% 29.92 in 10.0 mi ESE 6.9 mph - N/A   Overcast
6:53 AM 53.1 °F - 43.0 °F 69% 29.94 in 10.0 mi Calm Calm - N/A   Overcast
7:53 AM 51.1 °F - 45.0 °F 80% 29.94 in 7.0 mi SE 3.5 mph - 0.01 in Rain Light Rain
8:51 AM 51.8 °F - 46.4 °F 82% 29.95 in 10.0 mi Calm Calm - 0.00 in   Overcast
8:53 AM 52.0 °F - 46.9 °F 83% 29.95 in 10.0 mi Calm Calm - 0.00 in   Overcast
9:53 AM 53.1 °F - 50.0 °F 89% 29.96 in 8.0 mi West 5.8 mph - 0.01 in   Overcast
10:29 AM 53.1 °F - 50.0 °F 89% 29.97 in 10.0 mi West 6.9 mph - N/A   Overcast
10:39 AM 53.1 °F - 50.0 °F 89% 29.97 in 7.0 mi West 8.1 mph - N/A   Overcast
10:53 AM 52.0 °F - 48.9 °F 89% 29.98 in 6.0 mi West 9.2 mph - N/A   Overcast
11:53 AM 52.0 °F - 48.9 °F 89% 29.99 in 10.0 mi West 11.5 mph - N/A   Overcast
12:21 PM 52.0 °F - 48.9 °F 89% 30.00 in 10.0 mi West 8.1 mph - N/A   Overcast
12:53 PM 52.0 °F - 50.0 °F 93% 30.01 in 7.0 mi West 9.2 mph - N/A   Overcast
1:10 PM 52.0 °F - 48.0 °F 86% 30.00 in 10.0 mi West 10.4 mph - N/A   Overcast
1:53 PM 53.1 °F - 46.9 °F 80% 30.01 in 10.0 mi West 15.0 mph - 0.00 in   Overcast
2:46 PM 55.0 °F - 44.1 °F 67% 30.00 in 10.0 mi West 13.8 mph - N/A   Scattered Clouds
2:53 PM 55.0 °F - 42.1 °F 62% 30.00 in 10.0 mi WSW 15.0 mph - N/A   Scattered Clouds
3:53 PM 55.0 °F - 39.9 °F 57% 30.01 in 10.0 mi West 12.7 mph - N/A   Partly Cloudy
4:53 PM 53.1 °F - 37.0 °F 55% 30.02 in 10.0 mi WSW 11.5 mph - N/A   Clear
5:53 PM 50.0 °F - 36.0 °F 59% 30.04 in 10.0 mi West 8.1 mph - N/A   Clear
6:53 PM 44.1 °F 42.5 °F 35.1 °F 71% 30.05 in 10.0 mi WSW 3.5 mph - N/A   Clear
7:53 PM 43.0 °F - 36.0 °F 76% 30.07 in 10.0 mi Calm Calm - N/A   Clear
9:53 PM 39.9 °F - 35.1 °F 83% 30.09 in 10.0 mi Calm Calm - N/A   Clear
10:53 PM 37.0 °F - 34.0 °F 89% 30.10 in 10.0 mi Calm Calm - N/A   Clear
11:53 PM 37.9 °F - 32.0 °F 79% 30.09 in 10.0 mi Calm Calm - N/A   Clear